contact:dominique.lefevre@mio.osupytheas.fr, maurice.libes@osupytheas.fr
Project:EMSO Ligure-ouest http://www.emso-fr.org/EMSO-France
Sensor Aquadopp, line 13 Serial AQD14315 
DOI : "https://doi.org/10.17882/74513; https://doi.org/10.17882/83244" 
Title:EMSO Ligure Ouest : Data ligne ALBATROSS capteur AQUADOPP - deploiement 2021
Id,Date,Profondeur,Latitude,Longitude,X_East,Y_North,Z_Up,Amplitude_X,Amplitude_Y,Amplitude_Z,Batterie,SoundSpeed,Heading,Pitch,Roll,Pressure,Temperature,Speed,Direction
, , m, degrees North, degrees East, m.s-1, m.s-1,m.s-1, 1, 1, 1, Volt, m.s-1, degree, degree, degree, dbar, degree_C, m.s-1, degree
09,2021-12-15T21:30:00,2000.0,42.79,6.0312,0.034,0.016,0.007,65.0,64.0,64.0,12.4,1504.7,93.4,-0.9,1.1,1990.674,13.28,0.037,64.8
09,2021-12-15T22:00:00,2000.0,42.79,6.0312,0.031,0.01,-0.001,67.0,64.0,66.0,12.4,1504.7,78.6,-0.8,1.1,1990.63,13.28,0.032,72.1
09,2021-12-15T22:30:00,2000.0,42.79,6.0312,0.04,0.008,0.007,66.0,63.0,66.0,12.4,1504.7,101.1,-1.1,1.1,1990.646,13.28,0.04,78.7
09,2021-12-15T23:00:00,2000.0,42.79,6.0312,0.041,0.024,0.007,65.0,62.0,65.0,12.4,1504.7,72.2,-0.8,1.0,1990.626,13.28,0.047,59.7
09,2021-12-16T00:00:00,2000.0,42.79,6.0312,0.052,0.027,-0.026,66.0,64.0,68.0,12.4,1504.7,63.5,-0.9,0.9,1990.611,13.28,0.058,62.6
09,2021-12-16T00:30:00,2000.0,42.79,6.0312,0.053,0.022,0.024,68.0,66.0,66.0,12.4,1504.7,55.8,-0.9,1.0,1990.621,13.28,0.057,67.5
09,2021-12-16T01:00:00,2000.0,42.79,6.0312,0.053,0.032,-0.049,67.0,63.0,64.0,12.5,1504.7,45.5,-0.6,1.1,1990.631,13.28,0.061,58.9
09,2021-12-16T01:30:00,2000.0,42.79,6.0312,0.059,0.002,-0.015,67.0,64.0,64.0,12.4,1504.7,62.7,-0.7,0.9,1990.652,13.28,0.059,88.1
09,2021-12-16T02:00:00,2000.0,42.79,6.0312,0.074,0.01,-0.001,69.0,63.0,66.0,12.4,1504.7,55.9,-1.0,1.1,1990.69,13.28,0.074,82.3
09,2021-12-16T02:30:00,2000.0,42.79,6.0312,0.052,0.002,0.006,67.0,63.0,66.0,12.4,1504.7,61.6,-0.5,0.9,1990.734,13.28,0.052,87.8
09,2021-12-16T03:00:00,2000.0,42.79,6.0312,0.056,0.036,-0.004,68.0,63.0,64.0,12.5,1504.7,53.9,-0.9,1.0,1990.717,13.28,0.066,57.3
09,2021-12-16T03:30:00,2000.0,42.79,6.0312,0.06,0.02,-0.017,67.0,63.0,67.0,12.4,1504.7,67.2,-1.2,0.9,1990.724,13.28,0.063,71.6
09,2021-12-16T04:00:00,2000.0,42.79,6.0312,0.087,0.012,-0.009,66.0,61.0,64.0,12.4,1504.7,71.5,-1.1,1.0,1990.788,13.28,0.087,82.2
09,2021-12-16T04:30:00,2000.0,42.79,6.0312,0.044,0.013,-0.005,67.0,62.0,66.0,12.4,1504.7,68.5,-0.8,0.9,1990.777,13.28,0.045,73.5
09,2021-12-16T05:00:00,2000.0,42.79,6.0312,0.045,0.008,0.0,67.0,63.0,68.0,12.4,1504.7,73.3,-0.9,0.9,1990.795,13.28,0.045,79.9
09,2021-12-16T05:30:00,2000.0,42.79,6.0312,0.064,-0.004,-0.008,68.0,65.0,65.0,12.4,1504.7,83.4,-0.9,0.9,1990.802,13.28,0.064,93.6
09,2021-12-16T06:00:00,2000.0,42.79,6.0312,0.053,0.002,-0.013,65.0,63.0,64.0,12.4,1504.7,77.6,-0.7,1.0,1990.817,13.28,0.053,87.8
09,2021-12-16T06:30:00,2000.0,42.79,6.0312,0.068,-0.025,-0.005,67.0,65.0,66.0,12.4,1504.7,77.8,-0.8,0.9,1990.79,13.28,0.072,110.2
09,2021-12-16T07:00:00,2000.0,42.79,6.0312,0.047,-0.011,0.003,68.0,65.0,66.0,12.4,1504.7,84.5,-1.1,0.9,1990.785,13.28,0.048,103.2
09,2021-12-16T07:30:00,2000.0,42.79,6.0312,0.055,-0.03,-0.004,65.0,63.0,65.0,12.4,1504.7,90.2,-0.8,0.9,1990.764,13.28,0.062,118.6
09,2021-12-16T08:00:00,2000.0,42.79,6.0312,0.041,0.003,-0.016,65.0,62.0,66.0,12.4,1504.7,96.1,-0.8,0.9,1990.75,13.28,0.041,85.8
09,2021-12-16T08:30:00,2000.0,42.79,6.0312,0.026,-0.002,-0.028,63.0,62.0,65.0,12.4,1504.7,93.0,-1.0,0.9,1990.773,13.28,0.026,94.4
09,2021-12-16T09:00:00,2000.0,42.79,6.0312,0.022,0.0,-0.003,64.0,61.0,65.0,12.4,1504.7,107.7,-0.9,0.9,1990.734,13.28,0.022,90.0
09,2021-12-16T09:30:00,2000.0,42.79,6.0312,0.027,-0.001,-0.014,62.0,61.0,62.0,12.4,1504.7,105.8,-0.8,0.9,1990.738,13.28,0.027,92.1
09,2021-12-16T10:00:00,2000.0,42.79,6.0312,0.031,0.024,-0.015,65.0,62.0,63.0,12.4,1504.7,104.5,-0.8,0.9,1990.76,13.28,0.039,52.3
09,2021-12-16T10:30:00,2000.0,42.79,6.0312,0.02,0.028,0.001,67.0,63.0,67.0,12.4,1504.7,109.8,-0.5,0.9,1990.711,13.28,0.034,35.5
09,2021-12-16T11:00:00,2000.0,42.79,6.0312,0.018,0.011,-0.001,66.0,61.0,64.0,12.4,1504.7,113.8,-0.6,1.0,1990.704,13.28,0.021,58.6
09,2021-12-16T11:30:00,2000.0,42.79,6.0312,0.005,0.038,-0.011,64.0,62.0,66.0,12.5,1504.7,100.0,-0.6,0.9,1990.646,13.28,0.038,7.5
09,2021-12-16T12:00:00,2000.0,42.79,6.0312,0.005,0.037,-0.003,65.0,60.0,65.0,12.5,1504.7,97.7,-0.9,0.9,1990.668,13.28,0.037,7.7
09,2021-12-16T13:00:00,2000.0,42.79,6.0312,0.044,0.027,0.013,65.0,63.0,65.0,12.4,1504.7,97.2,-0.4,0.9,1990.677,13.28,0.051,58.5
09,2021-12-16T13:30:00,2000.0,42.79,6.0312,0.026,0.019,-0.014,64.0,58.0,64.0,12.4,1504.7,99.4,-1.2,1.0,1990.679,13.28,0.032,53.8
09,2021-12-16T14:00:00,2000.0,42.79,6.0312,0.039,0.056,-0.001,65.0,60.0,63.0,12.4,1504.7,89.8,-0.8,1.0,1990.699,13.28,0.068,34.9
09,2021-12-16T14:30:00,2000.0,42.79,6.0312,0.067,0.019,-0.008,65.0,63.0,64.0,12.4,1504.7,88.2,-1.1,1.0,1990.757,13.28,0.069,74.2
09,2021-12-16T15:00:00,2000.0,42.79,6.0312,0.043,0.03,-0.007,67.0,62.0,65.0,12.4,1504.7,75.9,-0.8,0.9,1990.714,13.28,0.052,55.1
09,2021-12-16T15:30:00,2000.0,42.79,6.0312,0.044,0.018,-0.004,65.0,61.0,65.0,12.4,1504.7,73.0,-0.6,0.8,1990.75,13.28,0.047,67.8
09,2021-12-16T16:00:00,2000.0,42.79,6.0312,0.024,0.041,0.005,68.0,61.0,64.0,12.4,1504.7,55.9,-0.9,0.9,1990.779,13.28,0.047,30.3
09,2021-12-16T16:30:00,2000.0,42.79,6.0312,0.039,0.023,0.025,63.0,64.0,65.0,12.4,1504.7,48.4,-0.5,1.0,1990.788,13.28,0.045,59.5
09,2021-12-16T17:00:00,2000.0,42.79,6.0312,0.036,0.044,-0.003,63.0,63.0,64.0,12.4,1504.7,54.9,-0.9,0.9,1990.811,13.28,0.056,39.3
09,2021-12-16T17:30:00,2000.0,42.79,6.0312,0.049,0.021,0.008,63.0,62.0,64.0,12.4,1504.7,49.4,-1.0,0.8,1990.801,13.28,0.053,66.8
09,2021-12-16T18:00:00,2000.0,42.79,6.0312,0.06,0.006,-0.008,64.0,61.0,64.0,12.4,1504.7,55.7,-0.8,1.2,1990.793,13.28,0.06,84.3
09,2021-12-16T18:30:00,2000.0,42.79,6.0312,0.034,0.023,0.01,65.0,62.0,62.0,12.4,1504.7,54.3,-1.1,1.0,1990.787,13.28,0.041,55.9
09,2021-12-16T19:00:00,2000.0,42.79,6.0312,0.071,0.0,-0.017,63.0,61.0,64.0,12.4,1504.7,63.6,-0.6,1.0,1990.787,13.28,0.07,90.0
09,2021-12-16T19:30:00,2000.0,42.79,6.0312,0.051,-0.011,0.018,62.0,61.0,65.0,12.4,1504.7,63.9,-0.7,0.9,1990.768,13.28,0.052,102.2
09,2021-12-16T20:00:00,2000.0,42.79,6.0312,0.055,0.014,0.032,66.0,62.0,66.0,12.4,1504.7,57.9,-0.9,0.9,1990.714,13.28,0.056,75.7
09,2021-12-16T20:30:00,2000.0,42.79,6.0312,0.025,0.016,0.028,66.0,61.0,64.0,12.4,1504.7,59.0,-0.9,0.9,1990.731,13.28,0.029,57.4
09,2021-12-16T21:00:00,2000.0,42.79,6.0312,0.057,0.014,0.008,64.0,62.0,69.0,12.4,1504.7,62.3,-0.9,0.9,1990.681,13.28,0.058,76.2
